Weather History for KAVL - March, 2008

Change the Weather History Date:

Tuesday, March 18, 2008

  Actual Average Record
Temperature  
Mean Temperature 44 °F 48 °F  
Max Temperature 51 °F 59 °F 83 °F (1908)
Min Temperature 37 °F 36 °F 15 °F (1941)
Degree Days  
Heating Degree Days 21 17  
Month to date heating degree days 349 351  
Since 1 July heating degree days 3332 3568  
Cooling Degree Days 0 0  
Month to date cooling degree days 0 0  
Year to date cooling degree days 0 0  
Moisture  
Dew Point 37 °F    
Average Humidity 69    
Maximum Humidity 89    
Minimum Humidity 49    
Precipitation  
Precipitation T in 0.12 in 1.58 in (1969)
Month to date precipitation 3.01 2.21  
Year to date precipitation 9.36 9.64  
Snow  
Snow 0.00 in 0.10 in 6.30 in (1936)
Month to date snowfall T 1.2  
Since 1 July snowfall 3.8 8.5  
Snow Depth -    
Sea Level Pressure  
Sea Level Pressure 30.24 in    
Wind  
Wind Speed 6 mph (SSE)    
Max Wind Speed 10 mph    
Max Gust Speed 13 mph    
Visibility 8 miles    
Events Rain    
T = Trace of Precipitation, MM = Missing Value Source: NWS Daily Summary

Daily Weather History Graph

Daily Weather History Graph

Search for Another Location

Airport or City:

Trip Planner

Search our weather history database for the weather conditions in past years. The results will help you decide how hot, cold, wet, or windy it might be!

Date:

Astronomy

Mar. 18, 2008 Rise Set
Actual Time 7:35 AM EDT 7:40 PM EDT
Civil Twilight 7:10 AM EDT 8:06 PM EDT
Nautical Twilight 6:41 AM EDT 8:35 PM EDT
Astronomical Twilight 6:11 AM EDT 9:05 PM EDT
Moon 4:50 PM EDT (3/18) 5:55 AM EDT (3/18)
Length of Visible Light 12h 55m
Length of Day
12h 04m
Waxing Gibbous, 90% of the Moon is Illuminated
Mar 18
Waxing Gibbous
Mar 21
Full
Mar 29
Last Quarter
Apr 5
New
Apr 12
First Quarter

Hourly Weather History & Observations

Time (EDT) Temp. Windchill Dew Point Humidity Pressure Visibility Wind Dir Wind Speed Gust Speed Precip Events Conditions
12:54 AM 37.9 °F 34.4 °F 30.9 °F 76% 30.40 in 10.0 mi SSE 4.6 mph - N/A   Clear
1:54 AM 37.9 °F - 30.9 °F 76% 30.39 in 10.0 mi Calm Calm - N/A   Clear
2:54 AM 39.9 °F 35.1 °F 30.9 °F 70% 30.36 in 10.0 mi SSE 6.9 mph - N/A   Overcast
3:54 AM 41.0 °F - 28.9 °F 62% 30.35 in 10.0 mi Calm Calm - N/A   Overcast
4:54 AM 41.0 °F 39.0 °F 28.9 °F 62% 30.33 in 10.0 mi ESE 3.5 mph - N/A   Overcast
5:54 AM 43.0 °F 39.5 °F 28.9 °F 58% 30.32 in 10.0 mi SE 5.8 mph - N/A   Overcast
6:32 AM 42.8 °F 39.3 °F 28.4 °F 57% 30.33 in 10.0 mi SSE 5.8 mph - N/A   Overcast
6:54 AM 43.0 °F 38.8 °F 28.9 °F 58% 30.33 in 10.0 mi SSE 6.9 mph - N/A   Overcast
7:54 AM 43.0 °F 39.5 °F 28.9 °F 58% 30.33 in 10.0 mi SSE 5.8 mph - N/A   Overcast
8:54 AM 44.1 °F 40.1 °F 26.1 °F 49% 30.33 in 10.0 mi Variable 6.9 mph - N/A   Overcast
9:54 AM 44.1 °F 40.8 °F 28.0 °F 53% 30.34 in 10.0 mi SE 5.8 mph - N/A   Overcast
10:54 AM 44.1 °F 39.0 °F 28.9 °F 55% 30.34 in 10.0 mi SSE 9.2 mph - N/A   Overcast
11:54 AM 43.0 °F 38.8 °F 35.1 °F 74% 30.34 in 10.0 mi SSE 6.9 mph - N/A   Overcast
12:54 PM 42.1 °F 38.4 °F 37.9 °F 85% 30.32 in 5.0 mi SSE 5.8 mph - 0.00 in   Overcast
1:10 PM 41.0 °F 37.1 °F 39.2 °F 93% 30.30 in 2.5 mi SE 5.8 mph - N/A   Overcast
1:44 PM 42.8 °F - 39.2 °F 87% 30.29 in 2.5 mi Calm Calm - N/A   Overcast
1:54 PM 42.1 °F - 39.0 °F 89% 30.29 in 2.5 mi Calm Calm - N/A   Overcast
2:54 PM 43.0 °F 41.3 °F 39.9 °F 89% 30.25 in 2.0 mi ESE 3.5 mph - 0.00 in Rain Light Rain
3:01 PM 42.8 °F - 39.2 °F 87% 30.24 in 4.0 mi Calm Calm - 0.00 in Rain Light Rain
3:09 PM 42.8 °F 40.1 °F 41.0 °F 93% 30.23 in 2.0 mi SSE 4.6 mph - 0.00 in Rain Light Rain
3:37 PM 44.6 °F 41.4 °F 39.2 °F 81% 30.21 in 4.0 mi SE 5.8 mph - 0.00 in   Haze
3:54 PM 45.0 °F 41.8 °F 41.0 °F 86% 30.21 in 4.0 mi SE 5.8 mph - 0.00 in   Overcast
4:54 PM 46.9 °F - 41.0 °F 80% 30.18 in 8.0 mi SSE 9.2 mph - N/A   Overcast
5:42 PM 48.2 °F - 41.0 °F 76% 30.16 in 10.0 mi SSE 8.1 mph - N/A   Overcast
5:54 PM 48.9 °F - 41.0 °F 74% 30.14 in 10.0 mi SSE 8.1 mph - N/A   Overcast
6:29 PM 48.2 °F - 42.8 °F 82% 30.13 in 10.0 mi South 9.2 mph - N/A   Overcast
6:42 PM 48.2 °F - 42.8 °F 82% 30.13 in 10.0 mi South 8.1 mph - N/A   Overcast
6:54 PM 48.9 °F - 42.1 °F 77% 30.12 in 10.0 mi South 9.2 mph - N/A   Overcast
7:54 PM 48.9 °F - 42.1 °F 77% 30.11 in 10.0 mi South 8.1 mph - N/A   Overcast
8:54 PM 48.9 °F - 43.0 °F 80% 30.11 in 10.0 mi SSW 6.9 mph - N/A   Overcast
9:54 PM 48.9 °F - 44.1 °F 83% 30.10 in 10.0 mi South 8.1 mph - N/A   Overcast
10:42 PM 48.2 °F - 44.6 °F 87% 30.10 in 10.0 mi SSE 9.2 mph - N/A   Overcast
10:54 PM 50.0 °F - 45.0 °F 83% 30.08 in 10.0 mi SE 9.2 mph - N/A   Overcast
11:10 PM 50.0 °F - 44.6 °F 82% 30.09 in 10.0 mi South 9.2 mph - N/A   Overcast
11:54 PM 50.0 °F - 45.0 °F 83% 30.08 in 10.0 mi South 3.5 mph - N/A   Overcast